Regional Weather Roundup
Issued by NWS

Home | Current Version | Previous Version | Text Only | Print | Product List | Glossary Off
Versions: 1 2 3 4 5 6 7 8 9 10 11 12 13 14 15 16 17 18 19 20 21 22 23 24 25 26 27 28 29 30 31 32 33 34 35 36 37 38 39 40 41 42 43 44 45 46 47 48 49 50

000
ASUS45 KCYS 292110
RWRWY

WYOMING REGIONAL WEATHER ROUNDUP
NATIONAL WEATHER SERVICE CHEYENNE WY
200 PM MST THU JAN 29 2015

NOTE:  "FAIR" INDICATES FEW OR NO CLOUDS BELOW 12,000 FEET
WITH NO SIGNIFICANT WEATHER AND/OR OBSTRUCTIONS TO VISIBILITY.

WYZ001-292200-
YELLOWSTONE NATIONAL PARK

CITY           SKY/WX    TMP DP  RH WIND       PRES   REMARKS
LK YELLOWSTONE   N/A     21  14  74 SE3       30.37F
W YELLOWSTONE  NOT AVBL

$$
WYZ002>013-054>058-071-098>099-292200-
NORTHERN WYOMING

CITY           SKY/WX    TMP DP  RH WIND       PRES   REMARKS
JACKSON        NOT AVBL
CODY           FAIR      45  30  57 SE10      30.30F
GREYBULL       FOG       33  33 100 CALM      30.35F VSB 1/4
WORLAND        FAIR      39  30  70 SE12      30.34F WCI  32
SHERIDAN       FAIR      48  23  37 SE10      30.31F
BUFFALO        FAIR      45  22  40 SE13      30.32F
GILLETTE       FAIR      46  22  38 SE9       30.34F
HULETT           N/A    N/A N/A N/A MISG        N/A
NEWCASTLE      FAIR      43  19  39 N7        30.40F

$$
WYZ014>020-022>026-101>103-292200-
CENTRAL WYOMING

CITY           SKY/WX    TMP DP  RH WIND       PRES   REMARKS
BIG PINEY      FAIR      34  23  64 N6        30.39F WCI  29
PINEDALE       FAIR      32  27  80 N5        30.39F WCI  27
DUBOIS         FAIR      37  18  44 CALM      30.31F
LANDER         FAIR      39  29  67 SE3       30.33F
RIVERTON       FAIR      42  29  59 VRB5      30.35F
CASPER         FAIR      45  25  45 S9        30.35F
DOUGLAS        FAIR      46  22  38 CALM      30.38F

$$
WYZ021-027>030-104>119-292200-
SOUTHERN WYOMING

CITY           SKY/WX    TMP DP  RH WIND       PRES   REMARKS
EVANSTON       CLOUDY    34  28  79 CALM      30.34F
KEMMERER       FAIR      37  28  70 CALM      30.35F
FORT BRIDGER   CLOUDY    36  33  87 N9        30.37F WCI  29
ROCK SPRINGS   FAIR      37  30  75 NE6       30.36F WCI  32
DIXON          FAIR      44  32  62 W6        30.36F
RAWLINS        FAIR      42  26  53 VRB3      30.35F
SARATOGA       FAIR      43  23  45 CALM      30.34F
LARAMIE        FAIR      39  26  59 SE10      30.35F WCI  32
CHEYENNE       FAIR      42  23  46 S6        30.39F
TORRINGTON     FAIR      46  18  32 W6        30.40F
PINE BLUFFS    FAIR      45  18  33 S5        30.41F

$$



USA.gov is the U.S. government's official web portal to all federal, state and local government web resources and services.